RESURS O1 DEB, 23345

Orbit data source: Space-Track

RESURS O1 DEB, 23345 is space debris in SSO originally from a launch on Fri, 04 Nov 1994 UTC launched from the Tyuratam Missile And Space Complex (TTMTR). Debris objects in space refer to the collection of defunct objects orbiting the Earth. Examples of debris include non-operational satellites, rocket bodies, and fragments generated from explosions, collisions, or faulty payload assembly.

Loading next visibility...
Identifier
23345, 1994-074D
Orbit
SSO
Country
Flag of CISCIS
Related business
Manufacturer
Yuzhnoe
Mission
Spacecraft
Bus & Motor
SEP MOTOR COVER, Unknown motor
Mass
~0 kg wet, ~1 kg dry
Launch date (UTC)
1994-11-04 (31 years ago)
Launch vehicle
Unknown
Launch site
Tyuratam Missile And Space Complex (TTMTR)
Object type
Payload
Rocket body
Debris
Shape & HBR
Unknown shape, 0.2 m
Radar Cross Section
Small (<0.1 m²)

Expand to show TLE details & history
Last TLE update: 15 hours ago

TLE from 15 hours ago
0 RESURS O1 DEB
1 23345U 94074D   25351.46490230  .00000382  00000-0  12551-3 0  9995
2 23345  97.8051 161.7321 0189434   6.0881  46.8638 14.33580829621717
Epoch: 2025-12-17T11:09Z
TLE epoch observation values (Epoch: 2025-12-17T11:09:27.558Z)
Latitude
53.92482°
Longitude
-102.75251°
Altitude
697.312 km
Speed
7.56 km/s
True Right ascension
10h 03m 47s
True Declination
53° 45' 34"
Sunlit
Object was in full shadow at epoch
Visualization orbit readout
Latitude
Unknown
Longitude
Unknown
Altitude
Unknown
Speed
Unknown
Apparent Right ascension
Unknown
Apparent Declination
Unknown
Sunlit
N/A
Visualization observer readout
Local Sidereal Time
00:32:38
Azimuth
Unknown
Elevation
Unknown
Doppler factor
Unknown
Orbital elements
Apogee altitude
912.424 km
Perigee altitude
641.344 km
Semi-major axis
7,155.021 km
Eccentricity
0.01894
Inclination
97.8051°
RAAN
161.7321°
Arg. of periapsis
6.0881°
True anomaly
48.4737°
Mean anomaly
46.8638°
Eccentric anomaly
47.66615°
Mean motion
3.58614 °/min
Orbital period
100.39 mins
BSTAR
0.00012551
Loading maneuver chart data...
Computing Atmospheric mass density...

Documentation

Showing up to 5 results
|